TimeCST,TemperatureF,Dew PointF,Humidity,Sea Level PressureIn,VisibilityMPH,Wind Direction,Wind SpeedMPH,Gust SpeedMPH,PrecipitationIn,Events,Conditions,WindDirDegrees,DateUTC
12:53 AM,55.0,45.0,69,29.98,10.0,SE,6.9,-,N/A,,Overcast,140,2013-02-10 06:53:00
1:16 AM,55.4,46.4,72,29.97,10.0,SE,9.2,-,N/A,,Overcast,140,2013-02-10 07:16:00
1:53 AM,55.9,46.9,72,29.96,10.0,SE,8.1,-,N/A,,Overcast,140,2013-02-10 07:53:00
2:46 AM,57.2,48.2,72,29.92,10.0,SE,11.5,-,N/A,,Overcast,140,2013-02-10 08:46:00
2:53 AM,57.0,50.0,77,29.91,10.0,SE,10.4,17.3,N/A,,Overcast,130,2013-02-10 08:53:00
3:53 AM,57.0,52.0,83,29.88,10.0,SE,10.4,-,N/A,,Overcast,130,2013-02-10 09:53:00
4:34 AM,57.2,53.6,88,29.88,10.0,SE,8.1,-,N/A,,Overcast,140,2013-02-10 10:34:00
4:53 AM,57.0,53.1,87,29.87,10.0,SSE,9.2,18.4,N/A,,Overcast,150,2013-02-10 10:53:00
5:53 AM,57.9,54.0,87,29.86,10.0,SSE,6.9,17.3,0.00,,Overcast,150,2013-02-10 11:53:00
6:53 AM,59.0,55.9,90,29.87,9.0,SSE,5.8,-,0.00,Rain,Light Rain,150,2013-02-10 12:53:00
7:10 AM,59.0,55.4,88,29.87,6.0,SSE,8.1,-,0.00,Thunderstorm,Overcast,150,2013-02-10 13:10:00
7:53 AM,57.9,57.0,97,29.85,2.5,SE,5.8,-,0.11,Rain-Thunderstorm,Heavy Rain,130,2013-02-10 13:53:00
8:22 AM,59.0,57.2,94,29.85,3.0,ESE,3.5,-,0.16,Rain-Thunderstorm,Thunderstorms and Rain,110,2013-02-10 14:22:00
8:53 AM,59.0,57.0,93,29.86,2.0,Calm,Calm,-,0.35,Rain-Thunderstorm,Heavy Thunderstorms and Rain,0,2013-02-10 14:53:00
9:01 AM,59.0,57.2,94,29.83,1.8,North,6.9,-,0.05,Rain-Thunderstorm,Heavy Thunderstorms and Rain,360,2013-02-10 15:01:00
9:30 AM,59.0,57.2,94,29.88,2.0,Calm,Calm,-,0.64,Rain-Thunderstorm,Heavy Thunderstorms and Rain,0,2013-02-10 15:30:00
9:32 AM,59.0,57.2,94,29.87,2.5,NE,3.5,-,0.65,Rain-Thunderstorm,Heavy Thunderstorms and Rain,40,2013-02-10 15:32:00
9:41 AM,59.0,57.2,94,29.85,3.0,ENE,8.1,-,0.69,Rain-Thunderstorm,Thunderstorms and Rain,60,2013-02-10 15:41:00
9:51 AM,59.0,57.2,94,29.89,3.0,Calm,Calm,-,0.72,Rain,Rain,0,2013-02-10 15:51:00
9:53 AM,59.0,57.9,96,29.89,3.0,Calm,Calm,-,0.72,Rain,Rain,0,2013-02-10 15:53:00
10:15 AM,59.0,57.2,94,29.88,1.8,Calm,Calm,-,0.03,Rain,Rain,0,2013-02-10 16:15:00
10:43 AM,59.0,57.2,94,29.76,3.0,East,12.7,18.4,0.12,Rain,Rain,100,2013-02-10 16:43:00
10:53 AM,59.0,57.9,96,29.77,9.0,ENE,8.1,-,0.13,Rain,Light Rain,60,2013-02-10 16:53:00
11:53 AM,60.1,57.9,93,29.78,10.0,SE,10.4,-,0.00,,Mostly Cloudy,140,2013-02-10 17:53:00
12:32 PM,60.8,57.2,88,29.79,10.0,SSE,8.1,-,N/A,,Mostly Cloudy,150,2013-02-10 18:32:00
12:40 PM,60.8,57.2,88,29.80,10.0,South,6.9,-,N/A,,Mostly Cloudy,170,2013-02-10 18:40:00
12:53 PM,61.0,59.0,93,29.79,10.0,South,5.8,-,N/A,,Overcast,180,2013-02-10 18:53:00
1:22 PM,62.6,59.0,88,29.82,10.0,South,8.1,-,N/A,,Overcast,170,2013-02-10 19:22:00
1:53 PM,62.1,59.0,90,29.81,10.0,South,6.9,-,N/A,,Overcast,190,2013-02-10 19:53:00
2:23 PM,64.4,59.0,83,29.80,10.0,SSW,8.1,-,N/A,,Overcast,200,2013-02-10 20:23:00
2:38 PM,64.4,59.0,83,29.81,10.0,SSW,6.9,-,N/A,,Overcast,200,2013-02-10 20:38:00
2:53 PM,66.0,59.0,78,29.80,10.0,SSW,8.1,-,N/A,,Mostly Cloudy,210,2013-02-10 20:53:00
3:19 PM,64.4,57.2,77,29.80,10.0,South,8.1,-,N/A,,Mostly Cloudy,190,2013-02-10 21:19:00
3:53 PM,64.9,57.9,78,29.81,10.0,SSW,10.4,-,N/A,,Scattered Clouds,200,2013-02-10 21:53:00
4:53 PM,64.9,57.9,78,29.83,10.0,South,9.2,-,N/A,,Clear,190,2013-02-10 22:53:00
5:53 PM,62.1,59.0,90,29.85,10.0,South,6.9,-,N/A,,Clear,180,2013-02-10 23:53:00
6:53 PM,61.0,57.9,90,29.87,10.0,SSW,4.6,-,N/A,,Clear,210,2013-02-11 00:53:00
7:10 PM,60.8,57.2,88,29.88,10.0,SSW,4.6,-,N/A,,Partly Cloudy,200,2013-02-11 01:10:00
7:44 PM,60.8,57.2,88,29.90,10.0,SW,4.6,-,N/A,,Mostly Cloudy,230,2013-02-11 01:44:00
7:53 PM,61.0,57.9,90,29.91,10.0,SW,4.6,-,N/A,,Scattered Clouds,230,2013-02-11 01:53:00
8:53 PM,61.0,59.0,93,29.92,10.0,WSW,5.8,-,N/A,,Scattered Clouds,240,2013-02-11 02:53:00
9:15 PM,60.8,57.2,88,29.93,10.0,WSW,5.8,-,N/A,,Mostly Cloudy,240,2013-02-11 03:15:00
9:53 PM,60.1,57.9,93,29.95,10.0,WSW,4.6,-,N/A,,Scattered Clouds,240,2013-02-11 03:53:00
10:53 PM,59.0,55.9,90,29.98,10.0,West,3.5,-,N/A,,Partly Cloudy,260,2013-02-11 04:53:00
11:53 PM,57.0,44.1,62,30.00,10.0,West,4.6,-,N/A,,Partly Cloudy,270,2013-02-11 05:53:00